Location: Oberkirch
(48.5323°N, 8.0787°E)
Time: 05:54:21
(UTC+00:00)

Tiros 1 - Pass Details

Date: 22 February 2026
Orbit: 618 x 650 km, 48.4° (Epoch: 13 March)

Event Time Altitude Azimuth Distance (km) Brightness Sun altitude
Rises 11:29:50 0° 284° (WNW) 2,902 10.3 31.3°
Reaches altitude 10° 11:32:14 10° 278° (W) 1,990 9.7 31.3°
Maximum altitude 11:36:34 44° 207° (SSW) 862 9.3 31.4°
Drops below altitude 10° 11:40:52 10° 135° (SE) 1,974 10.4 31.4°
Sets 11:43:14 0° 129° (SE) 2,877 11.0 31.4°
